This is the latest recevied weather packets stored in our database for station/object EA6AMI-5. If no packets are shown the sender has not sent any weather packets the latest 10 day(s).
| Time | Temp. | Humidity | Pressure | Rain* | Wind** | Luminosity | Snow |
|---|---|---|---|---|---|---|---|
| 1777919223 | 17.22° C | 88% | 1012.6 hPa | 0 mm | - | 7 W/m² | - |
| 1777918683 | 17.22° C | 88% | 1012.4 hPa | 0 mm | - | 6 W/m² | - |
| 1777918143 | 17.22° C | 88% | 1012.4 hPa | 0 mm | - | 9 W/m² | - |
| 1777917603 | 17.78° C | 87% | 1012.4 hPa | 0 mm | - | 15 W/m² | - |
| 1777917244 | 17.78° C | 87% | 1012.4 hPa | 0 mm | - | 11 W/m² | - |
| 1777916703 | 17.78° C | 86% | 1012.3 hPa | 0 mm | - | 18 W/m² | - |
| 1777916163 | 17.78° C | 86% | 1012.3 hPa | 0 mm | - | 31 W/m² | - |
| 1777915623 | 17.78° C | 86% | 1012.4 hPa | 0 mm | - | 38 W/m² | - |
| 1777915083 | 17.78° C | 85% | 1012.4 hPa | 0 mm | - | 33 W/m² | - |
| 1777914543 | 17.78° C | 85% | 1012.3 hPa | 0 mm | - | 36 W/m² | - |
| 1777914003 | 18.33° C | 85% | 1012.3 hPa | 0 mm | - | 33 W/m² | - |
| 1777913643 | 18.33° C | 85% | 1012.4 hPa | 0 mm | - | 42 W/m² | - |
| 1777913104 | 18.33° C | 84% | 1012.3 hPa | 0 mm | - | 45 W/m² | - |
| 1777912563 | 18.33° C | 84% | 1012.3 hPa | 0 mm | - | 69 W/m² | - |
| 1777912023 | 18.89° C | 83% | 1012.3 hPa | 0 mm | - | 43 W/m² | - |
| 1777911483 | 18.33° C | 84% | 1012.4 hPa | 0 mm | - | 125 W/m² | - |
| 1777910943 | 18.89° C | 83% | 1012.2 hPa | 0 mm | - | 111 W/m² | - |
| 1777910403 | 18.89° C | 83% | 1012.4 hPa | 0 mm | - | 120 W/m² | - |
| 1777910043 | 18.33° C | 83% | 1012.1 hPa | 0 mm | - | 209 W/m² | - |
| 1777909503 | 18.89° C | 82% | 1012.4 hPa | 0 mm | - | 74 W/m² | - |
| 1777908963 | 18.33° C | 82% | 1012.4 hPa | 0 mm | - | 202 W/m² | - |
| 1777908424 | 18.89° C | 82% | 1012.4 hPa | 0 mm | - | 130 W/m² | - |
| 1777907883 | 18.89° C | 81% | 1012.4 hPa | 0 mm | - | 165 W/m² | - |
| 1777907343 | 18.89° C | 82% | 1012.5 hPa | 0 mm | - | 156 W/m² | - |
| 1777906804 | 19.44° C | 80% | 1012.3 hPa | 0 mm | - | 130 W/m² | - |
* Rain latest hour (hover to see other rain measurements)
** Current wind speed in m/s (hover to see current wind gust speed)